Regional Weather Roundup
Issued by NWS Midland/Odessa, TX

Skip options and go directly to product.
Home | Oldest Version | Previous Version | Current Version | All | Graphics & Text | Save Text | Print | Product List | Glossary On

Skip product version selection by date and time.   
248
ASUS44 KMAF 221610
RWRMAF
MIDLAND AREA WEATHER ROUNDUP
NATIONAL WEATHER SERVICE MIDLAND TX
1100 AM CDT MON SEP 22 2014

...IN SOUTHWEST TEXAS AND SOUTHEAST NEW MEXICO...

CITY           SKY/WX    TMP DP  RH WIND       PRES   REMARKS
ALPINE         CLOUDY    70  62  74 E10       30.35S
ANDREWS        CLOUDY    70  66  89 E9        30.29R
ARTESIA        NOT AVBL
BIG SPRING     CLOUDY    74  69  83 NE9       30.29R
CARLSBAD       CLOUDY    70  32  24 SE13      30.25S
DRYDEN           N/A     84  66  54 E13G21    30.20R
FORT STOCKTON  PTSUNNY   75  66  73 SE16      30.24S
GUAD PASS      HVY RAIN  61  61 100 E14       30.35R VSB 1/4
HOBBS          CLOUDY    68  68 100 E12       30.30S
MARFA          CLOUDY    70  61  73 E15       30.33S
MIDLAND AIRPK  CLOUDY    74  68  80 E7        30.28R
MIDLAND INTL   CLOUDY    73  68  84 E8        30.26S
ODESSA         CLOUDY    73  67  81 E9        30.27S
PECOS          CLOUDY    71  69  94 E8        30.23S
PRESIDIO       CLOUDY    75  65  69 NE10G20   30.19S
SEMINOLE       CLOUDY    68  65  92 CALM      30.31S
SNYDER         PTSUNNY   72  67  85 NE13      30.28R
WINK           CLOUDY    74  69  85 SE9       30.23S
$$
...OTHER STATIONS IN TEXAS...

CITY           SKY/WX    TMP DP  RH WIND       PRES   REMARKS
ABILENE        CLOUDY    77  65  66 E9        30.25R
AMARILLO       CLOUDY    65  51  60 SE20      30.35R
AUSTIN         PTSUNNY   85  68  56 NE10      30.13S
BROWNSVILLE    MOSUNNY   87  77  72 NE9       30.01S
CORPUS CHRISTI PTSUNNY   85  74  69 NE14      30.07S
DALLAS FTW     MOSUNNY   80  52  37 NE12      30.21S
DEL RIO        SUNNY     81  64  56 S10       30.16S
EL PASO        CLOUDY    69  65  86 N8        30.23R
HOUSTON INT    PTSUNNY   85  71  63 VRB3      30.08S
LUBBOCK        PTSUNNY   69  58  67 E16       30.32R
SAN ANGELO     MOSUNNY   78  66  66 E8        30.23R
SAN ANTONIO    PTSUNNY   87  65  47 VRB7      30.15R
WACO           CLOUDY    81  69  67 E8        30.17R
WICHITA FALLS  NOT AVBL
$$
...OTHER LOCATIONS IN NEW MEXICO...

CITY           SKY/WX    TMP DP  RH WIND       PRES   REMARKS
ALAMAGORDO     CLOUDY    72  63  73 N6        30.27R
ALBUQUERQUE    PTSUNNY   70  57  63 S5        30.33R
CANNON AFB     FOG       63 N/A N/A SE10      30.35R VSB 1/2
CLOVIS           N/A     61  61 100 SE10      30.37S VSB 3/4
HOLLOMAN AFB   PTSUNNY   72  63  75 N2        30.25R
ROSWELL        CLOUDY    68  66  93 SE9       30.28R
RUIDOSO        LGT RAIN  57  57 100 SE10      30.44R
SANTA FE       CLOUDY    65  55  70 SE15      30.38S
TRUTH OR CONSE CLOUDY    70  62  76 E3        30.28R
TUCUMCARI      CLOUDY    66  61  84 CALM      30.32S
$$

USA.gov is the U.S. government's official web portal to all federal, state and local government web resources and services.